Home > Weather > Eastbourne > Past weeks

Flag for United Kingdom Past Weather in Eastbourne, England, United Kingdom — Yesterday and Last 2 Weeks

Now
56 °F

Cool.


Feels Like: 55 °F
Forecast: 56 / 62 °F
Wind: 7 mph from West

Location: Herstmonceux

Current Time: Jul 2, 2016 at 1:25:22 AM

Latest Report: Jul 2, 2016 at 12:00 AM


Visibility: 10 mi

Pressure: 29.86 "Hg

Humidity: 86%

Dew Point: 52 °F

Location of EastbourneLocation

Past Weather in Eastbourne — Graph

°F

Eastbourne Temperature Yesterday

Maximum temperature yesterday: 61 °F (at 3:00 PM)
Minimum temperature yesterday: 56 °F (at 10:00 PM)
Average temperature yesterday: 59 °F

High & Low Weather Summary for the Past Weeks

 TemperatureHumidityPressure
High73 °F (Jun 23, 2:00 PM)100% (Jun 20, 12:00 AM)30.26 "Hg (Jun 20, 12:00 AM)
Low50 °F (Jun 25, 6:00 AM)56% (Jun 27, 3:00 PM)29.59 "Hg (Jun 17, 12:00 AM)
Average60 °F89%29.99 "Hg
* Reported Jun 17 12:00 AM — Jul 2 12:00 AM, Eastbourne, Weather by CustomWeather, © 2016

Note: Actual official high and low records may vary slightly from our data, if they occured in-between our weather recording intervals... More about our weather records

Advertising

Eastbourne Weather History for the Previous 24 Hours

Scroll right to see more
 ConditionsComfort  
Time TempWeatherWind HumidityBarometerVisibility
12:00 AM
Sat, Jul 2
56 °FCool.7 mph86%29.86 "Hg10 mi
11:00 PM
Fri, Jul 1
56 °FCool.8 mph87%29.85 "Hg11 mi
10:00 PM56 °FCool.8 mph87%29.85 "Hg8 mi
9:00 PM57 °FCool.12 mph81%29.83 "Hg9 mi
8:00 PM59 °FCool.10 mph79%29.81 "Hg12 mi
7:00 PM61 °FCool.12 mph76%29.81 "Hg13 mi
6:00 PM61 °FCool.14 mph72%29.81 "Hg15 mi
5:00 PM60 °FCool.13 mph80%29.82 "Hg17 mi
4:00 PM59 °FRain showers. Cloudy.10 mph86%29.83 "Hg8 mi
3:00 PM61 °FCool.10 mph83%29.83 "Hg22 mi
2:00 PM59 °FCool.9 mph92%29.83 "Hg6 mi
1:00 PM60 °FCool.9 mph87%29.84 "Hg16 mi
12:00 PM59 °FCool.9 mph92%29.84 "Hg12 mi
11:00 AM60 °FCool.8 mph95%29.84 "Hg8 mi
10:00 AM60 °FCool.9 mph95%29.84 "Hg11 mi
9:00 AM59 °FCool.9 mph99%29.84 "Hg6 mi
8:00 AM58 °FRain. Cloudy.10 mph99%29.84 "Hg2 mi
7:00 AM58 °FDrizzle. Cloudy.9 mph98%29.83 "Hg2 mi
6:00 AM58 °FLots of rain. Cloudy.9 mph97%29.84 "Hg2 mi
5:00 AM58 °FCool.9 mph94%29.83 "Hg6 mi
4:00 AM58 °FCool.10 mph94%29.84 "Hg4 mi
3:00 AM58 °FCool.9 mph95%29.84 "Hg7 mi
2:00 AM58 °FRain. Overcast.10 mph97%29.84 "Hg2 mi
1:00 AM59 °FCool.10 mph96%29.84 "Hg5 mi
Weather by CustomWeather, © 2016

See weather overviewHow to use our weather pages